This demonstration page uses our WeatherBlox Daily Observations layout. Learn more.

Left ArrowRight Arrow

Hourly Observations for May 3, 2021

Temp ( °F °C ) Dew Point ( °F °C ) Humidity (%) Winds ( mph kmh ) Pressure ( in mb ) Visibility ( mi km ) Precip ( " mm )
12:53 am 00:53 Clear 73 22.8 59 15 62 62 SSE 8 13 29.83 1010 10 16 0.00 0.00
1:53 am 01:53 Partly Cloudy 72 22.2 59 15 64 64 S 8 13 29.83 1010 10 16 0.00 0.00
2:53 am 02:53 Clear 70 21.1 59 15 68 68 S 6 9 29.82 1010 10 16 0.00 0.00
3:53 am 03:53 Mostly Cloudy 70 21.1 60 15.6 71 71 S 7 11 29.82 1010 10 16 0.00 0.00
4:53 am 04:53 Mostly Cloudy 69 20.6 61 16.1 76 76 VRB 3 6 29.80 1009 10 16 0.00 0.00
5:53 am 05:53 Cloudy 70 21.1 62 16.7 76 76 SSW 6 9 29.80 1009 10 16 0.00 0.00
6:53 am 06:53 Cloudy 69 20.6 63 17.2 81 81 S 7 11 29.82 1010 10 16 0.00 0.00
7:41 am 07:41 Cloudy with Light Rain 69 20.6 65 18.3 87 87 S 8 13 29.83 1010 9 14 0.00 0.00
7:53 am 07:53 Cloudy with Light Rain 69 20.6 65 18.3 87 87 SSW 7 11 29.83 1010 10 16 0.01 0.25
8:53 am 08:53 Cloudy with Light Rain 69 20.6 66 18.9 90 90 S 7 11 29.83 1010 7 11 0.01 0.25
9:03 am 09:03 Cloudy with Rain 69 20.6 66 18.9 90 90 S 6 9 29.85 1011 4 6 0.02 0.51
9:11 am 09:11 Cloudy with Rain 69 20.6 66 18.9 90 90 SW 6 9 29.85 1011 4 6 0.04 1.02
9:23 am 09:23 Cloudy with Light Rain 69 20.6 67 19.4 93 93 SW 3 6 29.85 1011 5 8 0.06 1.52
9:36 am 09:36 Cloudy with Thunderstorms 69 20.6 67 19.4 93 93 W 5 7 29.86 1011 7 11 0.06 1.52
9:53 am 09:53 Cloudy with Nearby Thunderstorms 69 20.6 68 20 96 96 Calm 29.83 1010 4 6 0.09 2.29
10:14 am 10:14 Cloudy with Thunderstorms 68 20 67 19.4 96 96 NNE 8 13 29.83 1010 5 8 0.02 0.51
10:24 am 10:24 Cloudy with Strong Thunderstorms 68 20 67 19.4 96 96 NNE 15 24 29.81 1009 2 3 0.08 2.03
10:26 am 10:26 Cloudy with Strong Thunderstorms 68 20 67 19.4 96 96 NNE 13 20 29.80 1009 2 2 0.12 3.05
10:30 am 10:30 Cloudy with Strong Thunderstorms 68 20 67 19.4 96 96 ENE 10 17 29.78 1008 1 1 0.33 8.38
10:38 am 10:38 Cloudy with Strong Thunderstorms 68 20 67 19.4 96 96 WNW 15 24 29.85 1011 0 0 0.93 23.62
10:49 am 10:49 Cloudy with Strong Thunderstorms 68 20 66 19 94 94 VRB 6 9 29.84 1010 0 0 1.44 36.58
10:53 am 10:53 Cloudy with Strong Thunderstorms 68 20 68 20 100 100 SSW 5 7 29.84 1011 0 0 1.56 39.62
10:59 am 10:59 Cloudy with Thunderstorms 68 20 68 20 100 100 Calm 29.83 1010 1 1 0.03 0.76
11:01 am 11:01 Cloudy with Thunderstorms 68 20 68 20 100 100 Calm 29.83 1010 1 2 0.03 0.76
11:04 am 11:04 Cloudy with Thunderstorms 68 20 68 20 100 100 Calm 29.84 1010 3 5 0.03 0.76
11:11 am 11:11 Cloudy with Nearby Thunderstorms 68 20 66 18.9 93 93 N 5 7 29.84 1010 10 16 0.03 0.76
11:22 am 11:22 Cloudy with Nearby Thunderstorms 68 20 67 19.4 96 96 N 8 13 29.84 1010 10 16 0.03 0.76
11:50 am 11:50 Cloudy with Light Rain 70 21 66 19 88 88 Calm 29.85 1011 10 16 0.03 0.76
11:53 am 11:53 Cloudy with Light Rain 69 20.6 67 19.4 93 93 ENE 3 6 29.84 1011 10 16 0.03 0.76
12:20 pm 12:20 Cloudy 71 21.7 69 20.6 94 94 SSE 3 6 29.83 1010 10 16 0.00 0.00
12:44 pm 12:44 Cloudy with Nearby Thunderstorms 71 21.7 68 20 90 90 SSW 5 7 29.83 1010 6 10 0.02 0.51
12:51 pm 12:51 Cloudy with Nearby Thunderstorms 72 22 68 20 88 88 WSW 6 9 29.85 1011 2 3 0.08 2.03
12:53 pm 12:53 Cloudy with Nearby Thunderstorms 71 21.7 68 20 90 90 VRB 3 6 29.84 1011 1 1 0.17 4.32
12:55 pm 12:55 Cloudy with Strong Thunderstorms 70 21.1 68 20 93 93 SSE 3 6 29.83 1010 1 1 0.10 2.54
1:05 pm 13:05 Cloudy with Strong Thunderstorms 69 20.6 68 20 96 96 Calm 29.85 1011 0 0 0.45 11.43
1:13 pm 13:13 Cloudy with Thunderstorms 68 20 67 19.4 96 96 NNE 9 15 29.85 1011 1 1 0.48 12.19
1:16 pm 13:16 Cloudy with Thunderstorms 68 20 66 18.9 93 93 VRB 5 7 29.85 1011 3 5 0.48 12.19
1:26 pm 13:26 Cloudy with Thunderstorms 69 20.6 65 18.3 87 87 NE 6 9 29.85 1011 10 16 0.48 12.19
1:36 pm 13:36 Cloudy with Nearby Thunderstorms 69 20.6 64 17.8 84 84 NE 5 7 29.84 1010 10 16 0.48 12.19
1:53 pm 13:53 Cloudy with Thunderstorms 69 20.6 65 18.3 87 87 ENE 8 13 29.83 1010 10 16 0.48 12.19
2:00 pm 14:00 Cloudy 70 21.1 64 17.8 82 82 E 8 13 29.83 1010 10 16 0.00 0.00
2:53 pm 14:53 Cloudy with Nearby Thunderstorms 72 22.2 68 20 87 87 ENE 6 9 29.81 1009 10 16 0.00 0.00
3:21 pm 15:21 Cloudy 72 22.2 68 20 87 87 NNE 12 19 29.80 1009 10 16 0.00 0.00
3:51 pm 15:51 Cloudy with Nearby Thunderstorms 73 23 68 20 83 83 Calm 29.81 1009 10 16 0.00 0.00
3:53 pm 15:53 Cloudy with Nearby Thunderstorms 73 22.8 68 20 84 84 E 3 6 29.82 1010 10 16 0.00 0.00
4:08 pm 16:08 Cloudy with Thunderstorms 72 22.2 67 19.4 84 84 NE 8 13 29.79 1009 10 16 0.00 0.00
4:30 pm 16:30 Cloudy with Nearby Thunderstorms 72 22.2 68 20 87 87 NNE 7 11 29.80 1009 10 16 0.00 0.00
4:39 pm 16:39 Cloudy with Thunderstorms 72 22.2 68 20 87 87 ENE 8 13 29.79 1009 10 16 0.00 0.00
4:53 pm 16:53 Cloudy with Thunderstorms 72 22.2 68 20 87 87 E 7 11 29.80 1009 9 14 0.01 0.25
4:57 pm 16:57 Cloudy with Strong Thunderstorms 72 22.2 69 20.6 91 91 SSE 3 6 29.80 1009 2 2 0.12 3.05
5:08 pm 17:08 Cloudy with Thunderstorms 72 22.2 69 20.6 91 91 E 5 7 29.81 1010 4 6 0.16 4.06
5:26 pm 17:26 Cloudy with Nearby Thunderstorms 72 22.2 70 21.1 94 94 SSE 9 15 29.82 1010 10 16 0.16 4.06
5:35 pm 17:35 Cloudy with Nearby Thunderstorms 72 22.2 70 21.1 94 94 SSW 5 7 29.82 1010 10 16 0.16 4.06
5:53 pm 17:53 Mostly Cloudy with Nearby Thunderstorms 72 22.2 69 20.6 91 91 S 8 13 29.82 1010 10 16 0.16 4.06
6:24 pm 18:24 Sunny 72 22.2 68 20 87 87 S 3 6 29.81 1010 10 16 0.00 0.00
6:53 pm 18:53 Sunny 71 21.7 68 20 90 90 S 5 7 29.82 1010 10 16 0.00 0.00
7:53 pm 19:53 Sunny 71 21.7 69 20.6 94 94 E 3 6 29.84 1011 9 14 0.00 0.00
8:53 pm 20:53 Clear 71 21.7 69 20.6 94 94 Calm 29.85 1011 10 16 0.00 0.00
9:53 pm 21:53 Clear 70 21.1 69 20.6 97 97 Calm 29.86 1011 10 16 0.00 0.00
10:53 pm 22:53 Mostly Clear 71 21.7 67 19.4 87 87 SW 6 9 29.87 1012 10 16 0.00 0.00
11:53 pm 23:53 Clear 69 20.6 65 18.3 87 87 SW 6 9 29.90 1013 10 16 0.00 0.00

Powered by AerisWeather